Content
SEND FEEDBACK

Daily
Averages
Monthly
Summary
United States of America

LIHUE, HAWAII


Home > North America > United States > Hawaii
Elevation: 103 feet     Latitude: 21 59N     Longitude: 159 21W

WEATHER
 
SELECT A DAY
Number of Records: 223,176;   Date Range: 1/1/95 - 9/29/14
 
SHARE

PRINT THIS DATA

[ ← Previous Day ]
WEATHER ALMANAC - JANUARY 10, 2013
[ Next Day → ]
[ °C ]   °F
Weather ElementAverageHighLow
Temperature73.9 °F77 °F (11:53 am)73 °F (12:53 am)
Dewpoint64.7 °F66.2 °F (12:34 am)63 °F (5:53 am)
Humidity73.2 %79 % (12:53 am)62 % (11:53 am)
Barometer29.99 in30.02 in (9:53 am)29.95 in (1:53 pm)
Wind Speed13.4 mph17.3 mph (8:50 pm)
Weather ElementAverage
Visibility10 mi
Wind DirectionENE (76.7 °)

Weather ElementTotal
Precipitation---
Cooling Degree Days10 (Base 65)
Growing Degree Days25 (Base 50)
Averaged from 36 records on January 10, 2013
WEATHER CONDITIONS BREAKOUT
WIND DIRECTION BREAKOUT
WEATHER BY HOUR - JANUARY 10, 2013
[ °C ]   °F
Local TimeTemperatureDewpointHumidityBarometerVisibilityWind DirectionWind SpeedGust SpeedPrecipitationEventsConditions
12:34 AM73.4 °F66.2 °F78 %30.00 in10.0 miEast (90°)15.0 mphMostly Cloudy
12:53 AM73.0 °F66.0 °F79 %29.99 in10.0 miENE (70°)15.0 mphMostly Cloudy
1:31 AM73.4 °F66.2 °F78 %29.99 in10.0 miEast (80°)16.1 mphMostly Cloudy
1:53 AM73.0 °F66.0 °F79 %29.99 in10.0 miENE (70°)15.0 mphMostly Cloudy
2:53 AM73.0 °F64.9 °F76 %29.97 in10.0 miEast (80°)15.0 mphScattered Clouds
3:18 AM73.4 °F64.4 °F73 %29.98 in10.0 miEast (80°)16.1 mphMostly Cloudy
3:32 AM73.4 °F64.4 °F73 %29.98 in10.0 miEast (80°)15.0 mphScattered Clouds
3:53 AM73.0 °F64.9 °F76 %29.97 in10.0 miENE (70°)16.1 mphScattered Clouds
4:33 AM73.4 °F64.4 °F73 %29.97 in10.0 miENE (70°)16.1 mphOvercast
4:53 AM73.0 °F64.0 °F73 %29.97 in10.0 miENE (70°)13.8 mphOvercast
5:01 AM73.4 °F64.4 °F73 %29.98 in10.0 miEast (80°)16.1 mphOvercast
5:53 AM73.0 °F63.0 °F71 %29.98 in10.0 miENE (70°)12.7 mphOvercast
6:53 AM73.0 °F63.0 °F71 %29.99 in10.0 miENE (70°)11.5 mphScattered Clouds
7:53 AM73.0 °F64.0 °F73 %30.00 in10.0 miENE (70°)13.8 mphMostly Cloudy
8:53 AM75.0 °F64.9 °F71 %30.01 in10.0 miENE (70°)11.5 mphClear
9:53 AM75.9 °F64.0 °F67 %30.02 in10.0 miENE (70°)13.8 mphScattered Clouds
10:53 AM75.0 °F64.0 °F69 %30.01 in10.0 miENE (60°)12.7 mphScattered Clouds
11:53 AM77.0 °F63.0 °F62 %29.99 in10.0 miEast (90°)8.1 mphScattered Clouds
12:53 PM75.9 °F63.0 °F64 %29.97 in10.0 miEast (100°)11.5 mphMostly Cloudy
1:53 PM75.9 °F64.0 °F67 %29.95 in10.0 miEast (80°)8.1 mphClear
2:53 PM75.9 °F64.0 °F67 %29.96 in10.0 miENE (70°)8.1 mphMostly Cloudy
3:53 PM75.0 °F64.9 °F71 %29.96 in10.0 miENE (70°)10.4 mphMostly Cloudy
4:18 PM75.2 °F64.4 °F69 %29.96 in10.0 miEast (80°)10.4 mphMostly Cloudy
4:25 PM75.2 °F64.4 °F69 %29.96 in10.0 miEast (90°)12.7 mphOvercast
4:53 PM75.0 °F64.9 °F71 %29.96 in10.0 miEast (90°)11.5 mphOvercast
5:53 PM73.9 °F64.9 °F73 %29.97 in10.0 miEast (90°)13.8 mphClear
6:53 PM73.0 °F64.9 °F76 %29.98 in10.0 miEast (80°)12.7 mphClear
7:53 PM73.0 °F66.0 °F79 %29.99 in10.0 miENE (70°)11.5 mphPartly Cloudy
8:50 PM73.4 °F66.2 °F78 %30.01 in10.0 miENE (70°)17.3 mphMostly Cloudy
8:53 PM73.0 °F64.9 °F76 %30.00 in10.0 miENE (70°)16.1 mphMostly Cloudy
9:37 PM73.4 °F64.4 °F73 %30.01 in10.0 miEast (80°)13.8 mphScattered Clouds
9:53 PM73.0 °F66.0 °F79 %30.00 in10.0 miENE (70°)13.8 mphClear
10:27 PM73.4 °F66.2 °F78 %30.01 in10.0 miENE (70°)15.0 mphMostly Cloudy
10:53 PM73.0 °F64.9 °F76 %30.01 in10.0 miEast (80°)15.0 mphMostly Cloudy
11:35 PM73.4 °F66.2 °F78 %30.01 in10.0 miEast (80°)12.7 mphMostly Cloudy
11:53 PM73.0 °F64.9 °F76 %30.00 in10.0 miEast (80°)15.0 mphMostly Cloudy
Hourly data recorded from PHLI, located miles away from Lihue, Hawaii







STORIES FROM OUR PARTNERS